Showing default

EXPLORER 7, 22

Orbit data source: Space-Track

EXPLORER 7, 22 is a payload satellite owned by GSFC (US) in LEO that was launched on Tue, 13 Oct 1959 UTC via a JUNO II launch vehicle from the Air Force Eastern Test Range (AFETR). Payload-class satellites include a variety of spacecraft equipped with specific instruments for various scientific and technological missions. These include communications satellites like Starlink; space stations such as the ISS; scientific satellites like the Hubble; Earth observation satellites from companies like Planet Labs, Umbra, and HawkEye 360; GPS; miniature CubeSats for education and research; and military/defense satellites.

Loading next visibility...
Identifier
22, 1959-009A
Orbit
LEO
Country
Flag of USUS
Related business
Manufacturer
ABMA
Mission
Spacecraft
Bus & Motor
S-1, Unknown motor
Mass
41 kg wet, 41 kg dry
Launch date (UTC)
1959-10-13 (66 years ago)
Launch vehicle
JUNO II
Launch site
Air Force Eastern Test Range (AFETR)
Object type
Payload
Rocket body
Debris
Shape & HBR
Unknown
Radar Cross Section
Medium (>0.1 m² and <1 m²)

Expand to show TLE details & history
Last TLE update: 14 hours ago

TLE from 14 hours ago
0 EXPLORER 7
1 00022U 59009A   25354.12517571  .00006836  00000-0  26531-3 0  9998
2 00022  50.2514 262.6756 0085879 123.9273 236.9889 15.23887447772999
Epoch: 2025-12-20T03:00Z
TLE epoch observation values (Epoch: 2025-12-20T03:00:15.181Z)
Latitude
0.00003°
Longitude
128.6559°
Altitude
527.215 km
Speed
7.583 km/s
True Right ascension
17h 30m 42s
True Declination
0° 00' 00"
Sunlit
Object was in daylight at epoch
Visualization orbit readout
Latitude
Unknown
Longitude
Unknown
Altitude
Unknown
Speed
Unknown
Apparent Right ascension
Unknown
Apparent Declination
Unknown
Sunlit
N/A
Visualization observer readout
Local Sidereal Time
15:39:03
Azimuth
Unknown
Elevation
Unknown
Doppler factor
Unknown
Orbital elements
Apogee altitude
553.883 km
Perigee altitude
435.834 km
Semi-major axis
6,872.996 km
Eccentricity
0.00859
Inclination
50.2514°
RAAN
262.6756°
Arg. of periapsis
123.9273°
True anomaly
236.16849°
Mean anomaly
236.9889°
Eccentric anomaly
236.57822°
Mean motion
3.80911 °/min
Orbital period
94.51 mins
BSTAR
0.00026531
Loading maneuver chart data...
Computing Atmospheric mass density...
Loading historical data...
Loading historical data...
Loading historical data...
Loading historical data...
Loading historical data...
Loading historical data...
Loading historical data...
Other satellites on launch #9 in the year 1959 (1959-10-13 UTC)

Documentation

Showing up to 5 results
|